Location: Góry Miechowskie
(50.3599°N, 20.1803°E)
Time: 21:30:23
(UTC+00:00)

Tiros 1 despin weight - Pass Details

Date: 21 September 2024
Orbit: 572 x 614 km, 48.2° (Epoch: 12 October)

Event Time Altitude Azimuth Distance (km) Brightness Sun altitude
Rises 04:44:03 0° 280° (W) 2,883 ? 2.3°
Reaches altitude 10° 04:46:33 10° 270° (W) 1,978 ? 2.7°
Maximum altitude 04:50:33 31° 208° (SSW) 1,087 ? 3.3°
Drops below altitude 10° 04:54:32 10° 147° (SSE) 1,970 ? 3.9°
Sets 04:57:01 0° 137° (SE) 2,870 ? 4.3°
